Simultaneous Nadir Overpasses (SNOs) Predictions

Prediction of SNOs between NOAA-19 and TERRA Satellite Orbit:

Table of predicted SNOs for the next 14.0 days since TLE Epoch: 8/10/2013
Index Date (NOAA-19) Time (NOAA-19) Lat,Lon (NOAA-19) SZA (NOAA-19 ) Date (TERRA) Time (TERRA) Lat,Lon (TERRA) SZA (TERRA ) Distance(km) Time Diff (sec)
1 08/10/2013 06:56:27 -69.75,-104.09 125.84 08/10/2013 06:57:38 -69.73,-104.04 125.87 3.31 71
2 08/10/2013 07:47:25 69.58, 63.41 54.00 08/10/2013 07:47:06 69.57, 63.39 53.99 1.19 19
3 08/12/2013 11:40:44 -69.79,-175.21 125.15 08/12/2013 11:41:56 -69.75,-175.09 125.20 6.86 72
4 08/12/2013 12:31:42 69.60, -7.67 54.67 08/12/2013 12:31:24 69.59, -7.66 54.66 1.05 18
5 08/14/2013 16:25:01 -69.84, 113.66 124.43 08/14/2013 16:26:13 -69.81, 113.93 124.46 10.64 72
6 08/14/2013 17:15:59 69.62, -78.76 55.36 08/14/2013 17:15:42 69.60, -78.73 55.34 2.79 17
7 08/16/2013 21:09:19 -69.95, 42.44 123.62 08/16/2013 21:10:30 -69.88, 42.93 123.71 20.75 71
8 08/16/2013 22:00:15 69.60,-149.78 56.03 08/16/2013 22:00:00 69.60,-149.80 56.03 0.79 15
9 08/19/2013 01:53:36 -70.02, -28.71 122.85 08/19/2013 01:54:47 -69.93, -28.07 122.95 26.53 71
10 08/19/2013 02:44:31 69.58, 139.19 56.72 08/19/2013 02:44:18 69.60, 139.12 56.74 3.09 13
11 08/21/2013 06:37:53 -70.09, -99.88 122.05 08/21/2013 06:39:04 -69.98, -99.08 122.17 33.01 71
12 08/21/2013 07:28:48 69.63, 68.07 57.49 08/21/2013 07:28:35 69.64, 68.11 57.51 2.14 13
13 08/23/2013 11:22:10 -70.17,-171.05 121.23 08/23/2013 11:23:20 -70.07,-170.02 121.34 40.77 70
14 08/23/2013 12:13:04 69.63, -2.98 58.24 08/23/2013 12:12:53 69.62, -2.99 58.23 0.48 11




NCC Satellite Simultaneous Nadir Overpasses (SNOs) Prediction Service
